Regional Weather Roundup
Issued by NWS Upton, NY

Current Version | Previous Version | Text Only | Print | Product List | Glossary Off
Versions: 1 2 3 4 5 6 7 8 9 10 11 12 13 14 15 16 17 18 19 20 21 22 23 24 25 26 27 28 29 30 31 32 33 34 35 36 37 38 39 40 41 42 43 44 45 46 47 48 49 50
000 ASUS41 KOKX 181505 RWROKX REGIONAL WEATHER ROUNDUP NATIONAL WEATHER SERVICE NEW YORK NY 1100 AM EDT THU SEP 18 2014 NOTE: "FAIR" INDICATES FEW OR NO CLOUDS BELOW 12,000 FEET WITH NO SIGNIFICANT WEATHER AND/OR OBSTRUCTIONS TO VISIBILITY. NYZ071-072-176-178-NJZ106-104-181600- NEW YORK CITY METRO AREA CITY SKY/WX TMP DP RH WIND PRES REMARKS CENTRAL PARK SUNNY 67 47 48 CALM 30.04S LAGUARDIA APRT MOSUNNY 69 50 50 NW6 30.01R KENNEDY INTL MOSUNNY 73 45 36 VRB3 30.02R NEWARK/LIBERTY MOSUNNY 72 45 37 VRB5 30.01F BRNX BOT. GARD N/A 68 50 52 N5 30.03F TETERBORO SUNNY 69 46 43 CALM 30.00F $$ NYZ177-179-078>081-181600- LONG ISLAND NEW YORK CITY SKY/WX TMP DP RH WIND PRES REMARKS FARMINGDALE SUNNY 71 48 43 NE7 30.01S ISLIP SUNNY 71 48 43 VRB5 30.00R SHIRLEY SUNNY 72 47 40 NW9 30.01S WESTHAMPTON SUNNY 71 46 40 N12 30.01S MONTAUK POINT N/A 67 53 61 NW7 30.01S $$ NYZ052-065-067-181600- HUDSON VALLEY CITY SKY/WX TMP DP RH WIND PRES REMARKS WHITE PLAINS MOSUNNY 69 43 38 NE7 30.01S NEWBURGH SUNNY 63 52 67 W6 30.03F MONTGOMERY SUNNY 64 50 60 CALM 30.01F POUGHKEEPSIE SUNNY 64 51 62 CALM 30.01F ALBANY PTSUNNY 61 49 64 CALM 30.03S $$ NJZ001-105-106-008-010-013-015-019>022-104-181600- NEW JERSEY CITY SKY/WX TMP DP RH WIND PRES REMARKS NEWARK/LIBERTY MOSUNNY 72 45 37 VRB5 30.01F TETERBORO SUNNY 69 46 43 CALM 30.00F CALDWELL SUNNY 68 48 48 CALM 30.02F MORRISTOWN SUNNY 70 52 52 CALM 30.02F SOMERVILLE NOT AVBL LINDEN FAIR 74 47 38 NW8 30.03S SUSSEX SUNNY 67 51 56 CALM 30.03S ANDOVER N/A 65 50 58 VRB3 30.03F TRENTON CLOUDY 69 51 52 NW5 30.02S MILLVILLE MOSUNNY 72 51 47 NW5 30.02F ATLANTIC CITY SUNNY 71 53 52 NW8 30.02F WRIGHTSTOWN LGT RAIN 70 53 53 NW5 30.00S TOMS RIVER SUNNY 70 50 49 CALM 30.02F BELMAR SUNNY 70 48 46 NW5 30.02S $$ PAZ047>061-062-071-181600- EASTERN PENNSYLVANIA CITY SKY/WX TMP DP RH WIND PRES REMARKS PHILADELPHIA CLOUDY 71 54 54 VRB3 30.02S ALLENTOWN MOSUNNY 65 50 58 CALM 30.03S SCRANTON N/A 62 47 57 MISG 30.04F $$ CTZ002-004>006-009-010-012-RIZ004-006-007-MAZ004-011-015-181600- SOUTHERN NEW ENGLAND IN CT CITY SKY/WX TMP DP RH WIND PRES REMARKS BRADLEY INTL MOSUNNY 68 50 52 NW3 30.00F HARTFORD SUNNY 64 50 60 SE8 30.01S DANBURY SUNNY 67 48 50 VRB5 30.02F WTRBRY/OXFORD SUNNY 66 46 48 N10 30.02S BRIDGEPORT SUNNY 69 52 54 S5 30.01S MERIDEN SUNNY 69 47 45 NW8 30.00F NEW HAVEN SUNNY 71 48 43 N6 30.00S CHESTER FAIR 66 46 48 N8 30.01S GROTON SUNNY 70 48 45 NW8 29.99S WILLIMANTIC SUNNY 68 50 52 W5 30.00F IN RI CITY SKY/WX TMP DP RH WIND PRES REMARKS PROVIDENCE MOSUNNY 70 46 42 N12G17 29.98F BLOCK ISLAND SUNNY 66 50 55 N6 29.99F WESTERLY SUNNY 70 44 39 NW9 29.99F IN MA CITY SKY/WX TMP DP RH WIND PRES REMARKS BOSTON MOSUNNY 68 46 45 VRB5 29.97F WORCESTER SUNNY 63 47 55 NW10 30.00S WESTFIELD SUNNY 65 49 56 VRB3 30.00F PROVINCETOWN SUNNY 64 52 63 NW9 29.98S NANTUCKET SUNNY 70 45 40 N10 29.97S $$ ANZ330-335-338-340-345-350-353-355-181600- COASTAL MARINE OBSERVATIONS STATION/POSITION TIME SKY/WX TEMP WIND PRES VSBY WAVE AIR SEA DIR/SP/G HT/PER (UTC) (F) (DEG/KT/KT) (MB) (MI) (FT/S) NY HARB ENTRANCE 1500 67 70 310/ 8/ 10 1016.6 4/14 4S FIRE IS 1500 70 N/A 3/13 23SW MTP 1500 N/A 3/13 HUDSON CANYON 1500 68 73 330/ 10/ 14 1015.6 4/13 EXECUTION ROCKS 1500 66 71 120/ 4/ 6 N/A WESTERN LI SOUND 1500 64 140/ 4/ 4 N/A 0 CENTRAL LI SOUND 1400 66 70 320/ 6/ 8 N/A 1 EASTERN LI SOUND 1400 67 69 350/ 4/ 4 N/A ROBBINS REEF 1500 67 270/ 2/ 3 1015.2 $$ >>>>>>>>>>>>>>>>>>>>>>>>>>>> KEY <<<<<<<<<<<<<<<<<<<<<<<<<<< > < > SKY/WX - SKY CONDITION/PRESENT WEATHER < > TMP - TEMPERATURE IN FAHRENHEIT < > DP - DEWPOINT IN FAHRENHEIT < > RH - RELATIVE HUMIDITY IN PERCENT < > WIND - DIRECTION AND SPEED IN MPH < > PRES - MEAN SEA LEVEL PRESSURE IN INCHES OF HG < > WCI - WIND CHILL INDEX < > VSB - VISIBILITY IN MILES < > HX - HEAT INDEX < > TC - TEMPERATURE IN CELSIUS < > VRB - VARIABLE WIND DIRECTION < > < >>>>>>>>>>>>>>>>>>>>>>>>>>>> KEY <<<<<<<<<<<<<<<<<<<<<<<<<<<

USA.gov is the U.S. government's official web portal to all federal, state and local government web resources and services.